This is the latest recevied weather packets stored in our database for station/object K7SKM. If no packets are shown the sender has not sent any weather packets the latest 10 day(s).
| Time | Temp. | Humidity | Pressure | Rain* | Wind** | Luminosity | Snow |
|---|---|---|---|---|---|---|---|
| 1787541831 | 20° C | 62% | 1024.2 hPa | 0 mm | - | 0 W/m² | - |
| 1787541528 | 20° C | 62% | 1024.3 hPa | 0 mm | - | 0 W/m² | - |
| 1787541224 | 20.56° C | 60% | 1024.4 hPa | 0 mm | - | 0 W/m² | - |
| 1787540920 | 21.11° C | 60% | 1024.1 hPa | 0 mm | - | 0 W/m² | - |
| 1787540616 | 21.11° C | 59% | 1024 hPa | 0 mm | - | 0 W/m² | - |
| 1787540313 | 21.11° C | 59% | 1024.1 hPa | 0 mm | - | 2 W/m² | - |
| 1787540010 | 21.11° C | 58% | 1024 hPa | 0 mm | - | 4 W/m² | - |
| 1787539705 | 21.67° C | 57% | 1024.2 hPa | 0 mm | - | 5 W/m² | - |
| 1787539405 | 21.67° C | 57% | 1024.1 hPa | 0 mm | - | 7 W/m² | - |
| 1787539100 | 21.67° C | 56% | 1024.1 hPa | 0 mm | - | 9 W/m² | - |
| 1787538797 | 22.22° C | 56% | 1024.3 hPa | 0 mm | - | 10 W/m² | - |
| 1787538493 | 22.22° C | 55% | 1024.2 hPa | 0 mm | - | 12 W/m² | - |
| 1787538188 | 22.22° C | 55% | 1024.2 hPa | 0 mm | - | 14 W/m² | - |
| 1787537884 | 22.22° C | 55% | 1024.3 hPa | 0 mm | - | 17 W/m² | - |
| 1787537581 | 22.22° C | 54% | 1024.1 hPa | 0 mm | - | 18 W/m² | - |
| 1787537275 | 22.78° C | 54% | 1024.2 hPa | 0 mm | - | 20 W/m² | - |
| 1787536970 | 22.78° C | 53% | 1024.5 hPa | 0 mm | - | 23 W/m² | - |
| 1787536669 | 22.78° C | 53% | 1024.4 hPa | 0 mm | - | 34 W/m² | - |
| 1787536366 | 22.78° C | 53% | 1024.3 hPa | 0 mm | - | 45 W/m² | - |
| 1787536060 | 22.78° C | 53% | 1024.1 hPa | 0 mm | - | 49 W/m² | - |
| 1787535757 | 22.78° C | 53% | 1024.4 hPa | 0 mm | - | 42 W/m² | - |
| 1787535451 | 23.33° C | 51% | 1024.3 hPa | 0 mm | - | 42 W/m² | - |
| 1787535147 | 23.33° C | 51% | 1024.5 hPa | 0 mm | - | 48 W/m² | - |
| 1787534846 | 23.89° C | 49% | 1024.5 hPa | 0 mm | - | 48 W/m² | - |
| 1787534540 | 23.89° C | 49% | 1024.6 hPa | 0 mm | - | 54 W/m² | - |
* Rain latest hour (hover to see other rain measurements)
** Current wind speed in m/s (hover to see current wind gust speed)